www.pogodaiklimat.ru
ПОГОДА в Канске

Архив погоды в Канске (Красноярский край, Россия)

Время
(UTC), дата
21 16.07
00 17.07
03 17.07
06 17.07
09 17.07
12 17.07
15 17.07
18 17.07
21 17.07
00 18.07
03 18.07
06 18.07
09 18.07
12 18.07
15 18.07
18 18.07
21 18.07
00 19.07
03 19.07
06 19.07
09 19.07
12 19.07
15 19.07
18 19.07
21 19.07
00 20.07
03 20.07
06 20.07
09 20.07
12 20.07
15 20.07
18 20.07
21 20.07
00 21.07
03 21.07
06 21.07
09 21.07
12 21.07
15 21.07
18 21.07
21 21.07
00 22.07
03 22.07
06 22.07
09 22.07
12 22.07
15 22.07
18 22.07
21 22.07
00 23.07
03 23.07
06 23.07
09 23.07
12 23.07
15 23.07
Ветер
(напр.,м/с)
Видим. Явления Облачность Т
(С)
Тd
(С)
f
(%)
Тe
(С)
Тes
(С)
Комфортность P
(гПа)
Po
(гПа)
Тmin
(С)
Tmax
(С)
R
(мм)
R24
(мм)
S
(см)
штиль 0 500 м туман, небо видно 4/0
[Ac trans]
+14.4 +14.3 99 +14 +14 1006.6 982.8
штиль 0 10 км в посл. час туман 8/0
[Ci fib]
+17.3 +17.3 100 +17 +20 1006.7 983.2 +14.1
штиль 0 20 км 9/0
[Ci fib]
+24.4 +17.6 66 +28 +40 душно 1005.7 982.7
СВ 1 20 км 9/3 600 м
[Cb cap Ac trans]
+28.8 +13.5 39 +30 +36 жарко 1004.4 981.8
СЗ 1 20 км 9/4 600 м
[Cb cap Ac trans]
+30.2 +15.5 41 +33 +36 душно 1003.2 980.7
С 1 20 км 8/3 600 м
[Cb cap Ci fib]
+27.8 +15.5 47 +31 +32 душно 1002.8 980.1 +30.8
штиль 0 20 км 6/3 600 м
[Cb cap Ac trans]
+21.9 +17.8 78 +27 +27 душно 1003.2 980.1
штиль 0 н/о 8/3 600 м
[Cb cap Ac trans]
+16.6 +16.4 99 +16 +16 1003.1 979.5
штиль 0 500 м туман, небо видно 8/4 600 м
[Cb cap Ac trans]
+15.8 +15.8 100 +16 +16 1002.2 978.6
З 1 10 км дымка {туман} 8/0
[Ac trans Ci fib]
+18.7 +18.7 100 +21 +23 комфорт 1001.7 978.4 +15.4
Ю 1 10 км 9/0
[Ac trans Ci sp]
+27.1 +18.3 59 +32 +40 очень душно 1000.3 977.7
СВ 2 20 км 10/3 600 м
[Cu med, cong Ac trans Ci sp]
+29.2 +16.0 45 +32 +37 душно 999.5 977.0
СВ 1 20 км 10/4 600 м
[Cu med, cong Ac trans Ci sp]
+29.5 +15.3 42 +32 +35 душно 998.5 976.1
СВ 1 20 км 10/3 600 м
[Cu med, cong Ac trans Ci sp]
+28.6 +16.0 46 +32 +32 душно 998.4 975.9 +30.4
штиль 0 н/о 9/3 600 м
[Cb cap Ac trans Ci fib]
+22.3 +17.8 76 +27 +27 душно 999.4 976.4
В 1 н/о 9/3 600 м
[Cb cap Ac trans]
+20.5 +17.6 83 +25 +25 комфорт 999.7 976.6
С 1 20 км в посл. час ливневой дождь 9/4 600 м
[Cb cap Ac trans]
+19.7 +19.5 99 +24 +24 комфорт 999.0 975.8
СВ 1 10 км гроза, ливневой дождь 9/6 600 м
[Cb cap Ac As]
+19.7 +19.6 99 +24 +24 комфорт 999.2 976.0 +19.3 3
ЮВ 2 20 км {гроза, ливн. дождь} 9/4 600 м
[Cb cap Ac trans]
+22.0 +19.3 85 +27 +31 душно 998.8 975.8
Ю 5 20 км {гроза, ливн. дождь} 9/8 600 м
[Cb cap Ac trans]
+23.5 +19.3 77 +28 +30 душно 998.3 975.5
З 1 20 км 3/3 600 м
[Cu med, cong]
+27.4 +18.9 60 +33 +40 очень душно 997.3 974.8
штиль 0 20 км 6/3 600 м
[Cb cap Ci fib]
+26.5 +18.7 62 +31 +33 душно 997.7 975.1 +28.0 0.8
Ю 1 н/о 1/0
[Ac trans]
+20.5 +18.7 89 +25 +25 комфорт 998.8 975.7
В 2 н/о ясно +19.1 +18.8 98 +22 +22 комфорт 999.0 975.8
В 1 10 км 5/3 600 м
[Cb cap Ac trans]
+17.8 +17.8 100 +19 +19 999.3 976.0
В 1 20 км 4/0
[Ac trans]
+19.8 +19.8 100 +24 +26 комфорт 999.7 976.6 +15.9
ЮЗ 2 20 км 8/0
[Ci]
+26.2 +18.7 63 +31 +40 очень душно 999.5 976.8
ЮЗ 2 20 км в посл. час гроза 8/6 600 м
[Cb cap Ci ing]
+28.2 +16.9 50 +32 +37 душно 998.9 976.3
З 1 20 км 8/5 1000 м
[Cu med, cong Ci fib]
+29.0 +16.0 45 +32 +36 душно 998.4 975.9
штиль 0 20 км 3/1 1000 м
[Cu med, cong Ci fib]
+27.5 +16.1 50 +31 +32 душно 998.6 976.0 +30.2
ЮЗ 1 н/о 1/1 600 м
[Cb cap]
+20.6 +17.0 80 +25 +25 комфорт 1000.0 976.9
З 1 н/о в посл. час гроза 9/3 600 м
[Cb cap Ac trans Ci fib]
+17.4 +15.7 90 +18 +18 1000.3 976.9
С 1 20 км ясно +14.9 +14.9 100 +15 +15 1001.0 977.3
штиль 0 20 км 9/5 600 м
[Cb cap Ac trans]
+18.5 +18.5 100 +19 +20 1001.7 978.4 +13.8
Ю 1 20 км {ливн. дождь} 6/0
[Ac trans Ci fib]
+24.3 +17.5 66 +28 +37 душно 1001.7 978.8
ЮЗ 2 20 км {ливн. дождь} 6/4 600 м
[Cb cap Ac trans]
+28.0 +16.0 48 +31 +38 душно 1000.5 977.9
СЗ 1 20 км 8/3 600 м
[Cb cap Ac trans]
+29.3 +16.5 46 +33 +37 душно 999.7 977.2
С 3 20 км 6/3 600 м
[Cb cap Ac trans]
+26.9 +15.1 48 +30 +30 душно 999.8 977.1 +29.4 2
С 1 н/о 3/1 600 м
[Cb cap Ac trans]
+19.8 +16.3 80 +23 +23 комфорт 1001.5 978.3
штиль 0 н/о ясно +16.6 +14.9 90 +16 +16 1001.7 978.2
штиль 0 10 км ясно +15.2 +15.1 99 +15 +15 1001.8 978.2
штиль 0 20 км ясно +19.5 +18.7 95 +22 +25 комфорт 1001.5 978.3 +14.8
СВ 1 20 км 8/0
[Cc]
+25.5 +14.7 51 +28 +38 жарко 1001.1 978.3
С 3 20 км 9/3 600 м
[Cb cap Ac trans Ci sp]
+28.1 +14.8 44 +31 +35 душно 999.6 977.0
ЮЗ 1 20 км гроза, ливневой дождь 10/6 600 м
[Cb cap As trans]
+19.8 +18.1 90 +24 +25 комфорт 1001.0 977.8
ЮЗ 1 20 км в посл. час ливневой дождь {гроза} 9/3 600 м
[Cb cap Ac trans Ci sp]
+19.7 +19.6 99 +24 +24 комфорт 1002.2 979.0 +28.4 7
штиль 0 н/о 9/4 600 м
[Cb cap Ac trans]
+18.5 +18.5 100 +19 +19 1002.7 979.4
штиль 0 н/о 8/3 600 м
[Cb cap Ac trans]
+17.4 +17.4 100 +17 +17 1002.5 979.1
штиль 0 4000 м дымка 6/3 600 м
[Cb cap Ac trans]
+17.3 +17.3 100 +17 +17 1001.6 978.2
штиль 0 20 км {ливн. дождь} 10/6 600 м
[Cb cap As op]
+18.6 +18.6 100 +20 +20 1001.6 978.3 +17.3 0.0
штиль 0 10 км слаб. ливневой дождь 9/8 600 м
[Cb cap Ac As]
+19.9 +19.8 99 +23 +25 комфорт 1001.6 978.4
З 1 20 км {ливн. дождь} 9/9 600 м
[Cb cap]
+21.3 +18.4 84 +26 +27 душно 1001.5 978.4
З 1 20 км 9/6 600 м
[Cb cap Ac trans]
+21.9 +18.1 79 +27 +29 душно 1001.9 978.8
З 1 20 км 9/5 600 м
[Cb cap Ac trans]
+21.6 +18.0 80 +26 +26 душно 1002.4 979.3 +23.5 0.9
З 1 н/о 9/5 600 м
[Cb cap Ac trans]
+19.7 +17.2 85 +23 +23 комфорт 1002.7 979.4
Местоположение метеостанции Канск (Красноярский край, Россия): широта 56.20 долгота 95.63 высота над уровнем моря 203 м.
В архиве по умолчанию представлена погода в Канске за последнюю неделю. Архивные данные за месяц целиком и за предыдущие месяцы, начиная с января 2011 года, Вы можете получить, выбрав интересующий диапазон дат из раскрывающегося списка и нажав кнопку "Найти!".
*Определитесь, кто Вы:
Внимание! Время в таблицах - всемирное. Для получения местного времени необходимо прибавить поправку, которая равна 7 ч.
Некоторые строки с данными для отдельных станций могут быть выделены курсивом. Это означает, что фактические данные отсутствуют по различным причинам, а приведенные значения являются расчетными модельными данными для данного пункта наблюдений.
Смотрите также архив погоды в соседних городах и на ближайших метеорологических станциях:
Партнеры нашего сайта:      
Пояснения к столбцам:
  • Ветер - указаны скорость ветра в м/с - средняя за 10 мин, порывы в срок и между сроками (в фигурных скобках) и направление, откуда дует ветер: С - северный,
  • СВ - северо-восточный, В - восточный, ЮВ - юго-восточный, Ю - южный, ЮЗ - юго-западный, З - западный, СЗ - северо-западный.
  • Видимость - горизонтальная дальность видимости в метрах или километрах. При видимости от 1 до 10 км при отсутствии осадков обычно наблюдается дымка, при ухудшении видимости до 1 км и менее - туман. В сухую погоду видимость может ухудшаться дымом, пылью или мглою.
  • Явления - указаны атмосферные явления, наблюдавшиеся в срок или в последний час перед сроком; фигурными скобками обозначены явления, наблюдавшиеся между сроками (за 1-3 часа до срока); квадратными скобками обозначены град или гололедные отложения с указанием их диаметра в мм.
  • Облачность - указаны через наклонную черту общая и нижняя облачность в баллах и высота нижней границы облаков в метрах; квадратными скобками обозначены формы облаков: Ci - перистые, Cs - перисто-слоистые, Cc - перисто-кучевые, Ac - высококучевые, As - высокослоистые, Sc - слоисто-кучевые, Ns - слоисто-дождевые, Cu - кучевые, Cb - кучево-дождевые. Подробнее классификацию облаков см. в Атласе облаков (PDF).
  • T - Температура воздуха - температура, измеренная на высоте 2 м над землей.
  • Td - Температура точки росы - температура, при понижении до которой содержащийся в воздухе водяной пар достигнет насыщения.
  • f - Относительная влажность воздуха - влажноcть воздуха, измеренная на высоте 2 м над землей.
  • Te - Эффективная температура - температура, которую ощущает одетый по сезону человек в тени. Характеристика душности погоды. При расчете учитывается влияние влажности воздуха и скорости ветра на теплоощущения человека.
  • Tes - Эффективная температура на солнце - температура, которую ощущает человек, с поправкой на солнечный нагрев. Характеристика знойности погоды. Зависит от высоты солнца над горизонтом, облачности и скорости ветра. Ночью, в пасмурную погоду, а также при ветре 12 м/с и более поправка равна нулю.
  • P - Атмосферное давление - приведенное к уровню моря атмосферное давление.
  • Po - Атмосферное давление - измеренное на уровне метеостанции атмосферное давление.
  • Tmin - Минимальная температура - минимум температуры воздуха на высоте 2 м над землей.
  • Tmax - Максимальная температура - максимум температуры воздуха на высоте 2 м над землей.
  • R - Количество осадков - Количество выпавших осадков за период времени, мм. При наведении курсора мыши на число - период времени, за который выпало указанное количество осадков.
  • R24 - Количество осадков - Количество выпавших осадков за 24 часа, мм.
  • S - Снежный покров - Высота снежного покрова, см. При наведении курсора мыши на число - состояние снежного покрова и степень покрытия местности в баллах.